sat.trackr.live / text

‹ back to catalog

STARLINK-36732

NORAD 67813 · 2026-032S

PAYLOAD ACTIVE UNKNOWN

§ Identity

Operator
Country
US
Launch date
2026-02-15
Launch site
AFWTR
Launch vehicle
Mass (kg)
RCS (m²)

Purposes: comms

External: N2YO · Heavens-Above · Gunter

§ Orbital elements

Epoch: 2026-09-19T18:07:00.882912Z

Period
93.91 min
Inclination
97.2860°
Eccentricity
0.0001805
Mean motion
15.33445190 rev/d
Perigee alt
464.3 km
Apogee alt
466.8 km
Semi-major
6,843.7 km
B*
4.6635e-4
RAAN
89.2105°
Arg perigee
92.0743°
Mean anomaly
268.0706°
Rev number
3,470

§ Raw data

STARLINK-367321 67813U 26032S   26262.75487133  .00015011  00000+0  46635-3 0  99982 67813  97.2860  89.2105 0001805  92.0743 268.0706 15.33445190 34701

JSON: /api/v1/satellites/67813 · /tle

For live sub-satellite position, see the globe view (requires WebGL).

§ Visibility from observer

Set your observer location to see the next 7 days of passes ≥ 10°. The values pass through the URL so the page stays shareable.

No JS? Fill the form by hand. The geolocation button needs JavaScript.